User: anonymous   Login
Location: Unspecified
(0.0000°N, 0.0000°E)
Time: 01:53:36
(UTC+02:00)
Language:

H-2A R/B - Orbit

View from above orbital plane
View from above orbital plane
View from above satellite
View from above satellite

Ground track
Ground track

The orbit data is extracted from the following two-line orbital elements,

1 26899U 01038B   15146.03960913  .00004208  00000-0  13315-2 0  9993
2 26899 028.4088 010.2258 7141948 050.9833 014.8459 02.45442867117918
Epoch (UTC): 26 May 2015 00:57:02
Eccentricity: 0.7141948
inclination: 28.4088°
perigee height: 257 km
apogee height: 33416 km
right ascension of ascending node: 10.2258°
argument of perigee: 50.9833°
revolutions per day: 2.45442867
mean anomaly at epoch: 14.8459°
orbit number at epoch: 11791

The dashed part of the orbit path shows where the satellite is in the earth's shadow,  

DLR